Content
SEND FEEDBACK

Daily
Averages
Monthly
Summary
United States of America

RAPID CITY, SOUTH DAKOTA


Home > North America > United States > South Dakota
Elevation: 963 meters     Latitude: 44 03N     Longitude: 103 04W

WEATHER
 
SELECT A DAY
Number of Records: 203,364;   Date Range: 1/1/95 - 10/24/14
 
SHARE

PRINT THIS DATA

[ ← Previous Day ]
WEATHER ALMANAC - 11 JANUARY, 2013
[ Next Day → ]
[ °F ]   °C
Weather ElementAverageHighLow
Temperature-8.6 °C-1 °C (12:32 am)-13.9 °C (11:52 pm)
Dewpoint-11.7 °C-2 °C (12:32 am)-19 °C (10:28 pm)
Humidity78.4 %93 % (12:32 am)62 % (10:28 pm)
Barometer1002.7 hPa1015.2 hPa (11:52 pm)995.9 hPa (6:10 am)
Wind Speed49.6 km/h62.9 km/h (9:42 am)
Wind Gust79.7 km/h (6:10 am)
Weather ElementAverage
Visibility7.6 km
Wind DirectionNNW (333.6 °)

Weather ElementTotal
Precipitation4.57 mm
Heating Degree Days25.8 (Base 18.3)
Averaged from 56 records on 11 January, 2013
WEATHER CONDITIONS BREAKOUT
WIND DIRECTION BREAKOUT
WEATHER BY HOUR - 11 JANUARY, 2013
[ °F ]   °C
Local TimeTemperatureDewpointHumidityBarometerVisibilityWind DirectionWind SpeedGust SpeedPrecipitationEventsConditions
12:32 AM-1 °C-2 °C93 %997.6 hPa16.1 kmNorth (350°)42.6 km/h51.8 km/hMostly Cloudy
12:52 AM-1.1 °C-2.8 °C88 %999.3 hPa16.1 kmNorth (350°)40.7 km/h55.5 km/hMostly Cloudy
1:14 AM-1 °C-3 °C86 %997.6 hPa16.1 kmNorth (350°)48.1 km/h61.2 km/hScattered Clouds
1:38 AM-1 °C-3 °C86 %997.3 hPa16.1 kmNorth (350°)48.1 km/h61.2 km/hMostly Cloudy
1:52 AM-1.7 °C-3.3 °C89 %999.3 hPa16.1 kmNorth (350°)51.8 km/h66.6 km/hOvercast
2:52 AM-2.8 °C-4.4 °C89 %998 hPa16.1 kmNorth (350°)57.5 km/h72.3 km/hOvercast
3:52 AM-3.9 °C-5.6 °C88 %998.3 hPa16.1 kmNorth (350°)57.5 km/h70.3 km/hOvercast
4:23 AM-4 °C-6 °C86 %996.6 hPa16.1 kmNorth (350°)50.1 km/h68.6 km/hOvercast
4:52 AM-4.4 °C-6.7 °C84 %998 hPa16.1 kmNorth (350°)53.8 km/h77.7 km/hOvercast
5:49 AM-5 °C-7 °C86 %996.3 hPa16.1 kmNorth (350°)55.5 km/h72.3 km/hOvercast
5:52 AM-5 °C-7.2 °C85 %999 hPa16.1 kmNorth (350°)59.2 km/h74 km/hOvercast
6:10 AM-6 °C-8 °C86 %995.9 hPa16.1 kmNorth (350°)61.2 km/h79.7 km/hOvercast
6:26 AM-6 °C-8 °C86 %997 hPa16.1 kmNorth (350°)51.8 km/h70.3 km/hOvercast
6:52 AM-5.6 °C-8.3 °C82 %1000.7 hPa16.1 kmNorth (10°)42.6 km/h57.5 km/hOvercast
7:02 AM-6 °C-8 °C86 %997.6 hPa16.1 kmNorth (360°)50.1 km/h61.2 km/hOvercast
7:52 AM-6.7 °C-9.4 °C81 %1001.7 hPa12.9 kmNorth (360°)59.2 km/h70.3 km/h0 mmOvercast
7:59 AM-7 °C-9 °C86 %998.6 hPa4.8 kmNorth (360°)59.2 km/h70.3 km/h0 mmSnowLight Snow
8:03 AM-7 °C-9 °C86 %998.6 hPa2.9 kmNorth (360°)61.2 km/h74 km/h0 mmSnowLight Snow
8:38 AM-8 °C-10 °C86 %998.6 hPa1.6 kmNorth (350°)59.2 km/h77.7 km/h0 mmSnowLight Snow
8:52 AM-7.8 °C-10.6 °C81 %1002 hPa1.9 kmNorth (350°)57.5 km/h77.7 km/h0 mmSnowBlowing Snow
9:01 AM-8 °C-11 °C79 %999.3 hPa2.4 kmNorth (350°)53.8 km/h72.3 km/hSnowBlowing Snow
9:11 AM-9 °C-11 °C86 %999.3 hPa1.6 kmNorth (350°)51.8 km/h72.3 km/hSnowBlowing Snow
9:17 AM-9 °C-11 °C86 %999.3 hPa0.8 kmNorth (350°)53.8 km/h70.3 km/hSnowBlowing Snow
9:38 AM-9 °C-12 °C79 %999.3 hPa1.6 kmNNW (340°)59.2 km/h72.3 km/h0.25 mmSnowBlowing Snow
9:42 AM-9 °C-12 °C79 %999.3 hPa0.8 kmNNW (340°)62.9 km/h79.7 km/h0.25 mmSnowBlowing Snow
9:52 AM-9.4 °C-12.2 °C80 %1003 hPa0.8 kmNNW (340°)61.2 km/h79.7 km/h0.25 mmSnowBlowing Snow
9:55 AM-9 °C-12 °C79 %999.3 hPa1.6 kmNNW (340°)55.5 km/h79.7 km/hSnowBlowing Snow
10:07 AM-9 °C-12 °C79 %999.7 hPa1.6 kmNorth (350°)50.1 km/h74 km/h0 mmSnowLight Snow
10:13 AM-9 °C-12 °C79 %1000 hPa1.3 kmNNW (340°)53.8 km/h76 km/hSnowLight Snow
10:32 AM-9 °C-13 °C73 %1000 hPa1.9 kmNNW (340°)50.1 km/h72.3 km/h0.25 mmSnowLight Snow
10:52 AM-9.4 °C-12.2 °C80 %1004.1 hPa1.9 kmNNW (340°)46.3 km/h68.6 km/h0.25 mmSnowLight Snow
11:20 AM-9 °C-13 °C73 %999 hPa1.3 kmNNW (340°)46.3 km/h68.6 km/h0 mmSnowLight Snow
11:52 AM-9.4 °C-12.2 °C80 %1002.7 hPa1.6 kmNNW (340°)57.5 km/h76 km/h0 mmSnowLight Snow
12:52 PM-9.4 °C-13.9 °C70 %1003.7 hPa1.3 kmNNW (330°)55.5 km/h74 km/h0 mmSnowLight Snow
1:52 PM-10 °C-13.3 °C77 %1004.1 hPa0.8 kmNNW (330°)51.8 km/h70.3 km/h0 mmSnowSnow
2:52 PM-10.6 °C-12.8 °C84 %1006.1 hPa0.8 kmNW (320°)46.3 km/h61.2 km/h0.76 mmFog-SnowSnow
2:59 PM-11 °C-13 °C85 %1001.4 hPa0.3 kmNW (320°)53.8 km/h68.6 km/h0 mmSnowHeavy Snow
3:52 PM-10.6 °C-13.3 °C81 %1007.5 hPa0.3 kmNW (320°)46.3 km/h66.6 km/h1.02 mmSnowHeavy Snow
4:39 PM-11 °C-14 °C79 %1003 hPa0.8 kmNW (320°)48.1 km/h59.2 km/hSnowSnow
4:49 PM-11 °C-14 °C79 %1003.4 hPa1.9 kmNW (320°)57.5 km/h68.6 km/h0.76 mmSnowLight Snow
4:52 PM-10.6 °C-15 °C71 %1008.1 hPa2.4 kmNW (320°)53.8 km/h68.6 km/h0.76 mmSnowLight Snow
5:01 PM-11 °C-16 °C67 %1003 hPa4.8 kmNW (320°)48.1 km/h70.3 km/h0 mmSnowLight Snow
5:20 PM-11 °C-16 °C67 %1003.4 hPa12.9 kmNNW (330°)48.1 km/h59.2 km/h0 mmOvercast
5:52 PM-11.1 °C-16.7 °C64 %1008.8 hPa9.7 kmNNW (330°)50.1 km/h66.6 km/h0 mmSnowBlowing Snow
6:52 PM-11.7 °C-17.2 °C64 %1010.2 hPa16.1 kmNNW (330°)44.4 km/h59.2 km/hOvercast
7:52 PM-12.2 °C-17.2 °C67 %1011.9 hPa14.5 kmNNW (330°)40.7 km/h53.8 km/h0 mmSnowLight Snow
8:42 PM-12 °C-17 °C67 %1006.8 hPa6.4 kmNNW (330°)38.9 km/h50.1 km/hSnowLight Snow
8:52 PM-12.8 °C-17.8 °C67 %1012.9 hPa4.8 kmNNW (330°)38.9 km/h51.8 km/h0 mmSnowLight Snow
9:01 PM-13 °C-18 °C67 %1007.1 hPa4 kmNNW (330°)37 km/h0 mmSnowLight Snow
9:22 PM-13 °C-17 °C73 %1007.5 hPa4.8 kmNNW (330°)37 km/h50.1 km/h0 mmSnowLight Snow
9:52 PM-12.8 °C-17.8 °C67 %1013.9 hPa4.8 kmNNW (330°)38.9 km/h0 mmSnowLight Snow
9:59 PM-13 °C-17 °C73 %1007.8 hPa4 kmNNW (330°)33.3 km/h0 mmSnowLight Snow
10:17 PM-13 °C-17 °C73 %1008.1 hPa6.4 kmNNW (330°)29.6 km/h0 mmSnowLight Snow
10:28 PM-13 °C-19 °C62 %1008.1 hPa11.3 kmNNW (330°)35.2 km/hSnowLight Snow
10:52 PM-13.3 °C-18.3 °C67 %1014.6 hPa9.7 kmNNW (330°)40.7 km/h50.1 km/h0 mmSnowLight Snow
11:52 PM-13.9 °C-18.9 °C67 %1015.2 hPa12.9 kmNNW (330°)35.2 km/h0 mmSnowLight Snow
Hourly data recorded from KRAP, located 0 kilometers away from Rapid City, South Dakota







STORIES FROM OUR PARTNERS